Lid_Strength_Index
4 4 4 4 4 4 4 4 4 5 4 4 4 3 3 3 3 5 7 4 2 1 1 5 5 5 4 4 3 3 7 9 8 8 7 5 6 4 4 6 5 4 5 4 2
4 4 4 4 4 4 4 4 5 5 4 4 4 4 3 3 5 7 3 -0 -1 -0 5 6 6 5 6 5 4 5 8 8 6 5 6 6 6 5 6 6 6 6 4 3 2
5 4 4 4 4 4 4 5 5 4 4 4 4 5 4 3 6 7 -2 0 -1 1 5 5 4 6 7 6 5 5 7 6 5 5 5 5 6 5 6 7 6 7 5 4 3
5 5 4 4 4 4 4 4 4 4 4 4 4 4 5 5 10 4 -1 -1 -1 3 5 6 5 7 8 8 5 7 5 5 5 5 5 7 6 8 6 7 4 4 4 3 4
5 5 5 4 4 4 4 5 4 4 4 4 4 4 6 9 8 4 -2 -1 2 4 6 6 6 7 8 7 6 6 5 5 5 5 4 5 7 8 7 6 5 4 4 4 4
5 5 5 5 4 4 4 4 4 4 3 3 4 4 6 11 5 4 4 1 3 6 5 5 6 5 6 6 7 5 5 5 5 5 5 5 6 7 7 5 5 5 5 4 4
5 4 5 4 4 4 4 4 3 3 3 3 3 4 7 8 3 5 3 3 2 5 5 5 5 5 5 6 4 5 7 6 5 5 5 5 7 9 7 6 6 5 5 4 4
4 5 4 4 4 4 3 3 3 3 2 2 2 4 8 3 3 4 4 4 3 4 4 4 4 5 5 5 6 7 6 9 6 5 5 5 10 9 6 6 7 6 5 5 4
4 4 4 3 3 2 2 2 2 2 1 2 3 4 7 3 5 5 4 6 5 4 4 4 4 6 6 8 8 7 10 9 8 5 6 7 9 8 6 6 7 6 6 5 5
5 5 4 3 2 2 2 2 1 1 0 1 2 6 5 7 5 5 4 4 6 6 6 7 7 8 8 9 12 10 10 9 9 7 7 8 9 8 7 7 7 7 6 6 5
4 4 3 2 2 1 2 1 3 5 3 5 5 6 6 5 4 6 5 4 5 6 10 9 11 11 9 8 7 8 9 9 8 6 8 8 8 9 7 7 7 7 6 6 5
4 4 3 2 1 1 1 3 4 3 7 5 5 5 4 4 8 6 5 7 7 10 9 10 12 9 7 7 7 8 9 9 8 6 8 8 9 9 9 7 7 7 7 6 5
4 3 2 1 1 -0 1 2 0 1 7 6 4 6 6 5 8 7 6 7 8 9 9 11 10 8 8 8 8 8 9 9 9 8 7 8 9 10 8 7 6 6 5 5 5
4 2 1 0 1 0 2 1 -0 -0 11 8 6 5 5 5 8 5 5 7 7 9 8 9 7 8 9 9 8 10 7 8 8 10 13 8 14 9 9 8 7 6 6 5 5
3 2 1 0 1 2 1 -0 -1 2 18 8 6 2 4 7 6 7 4 7 9 8 8 10 9 9 10 9 7 9 7 8 8 9 10 10 12 10 9 10 8 7 6 5 4
2 1 0 -0 0 -0 -1 -1 2 13 17 9 6 7 6 6 7 6 6 5 6 7 7 8 6 7 8 7 7 6 8 8 9 10 14 11 11 12 11 9 8 6 6 5 4
2 1 1 0 2 -1 -1 3 12 16 8 10 9 7 8 8 7 7 9 9 10 12 11 9 8 7 6 9 7 7 9 14 15 15 16 10 11 10 7 7 7 6 6 5 4
2 1 -1 -1 -1 -2 2 8 16 10 10 7 8 8 10 8 8 8 9 11 9 9 10 11 12 8 7 8 9 9 9 14 18 17 14 10 13 10 6 5 5 5 5 5 4
2 -1 -0 -1 -2 -1 6 14 12 10 8 9 8 10 10 8 9 8 9 10 8 8 11 11 11 7 7 7 7 9 11 8 12 11 14 12 10 7 6 6 5 6 5 5 5
3 1 2 -2 -2 2 9 12 9 6 7 7 11 9 12 12 11 9 9 8 8 7 6 8 12 8 7 7 7 8 7 12 11 19 18 13 12 12 9 8 6 6 6 5 5
3 4 1 -3 -0 5 12 10 8 5 6 8 9 10 11 12 10 10 11 8 7 7 6 8 9 10 8 9 10 9 10 9 10 12 17 17 14 7 8 7 7 6 5 5 5
3 7 0 -1 7 6 9 7 6 6 5 7 7 9 10 10 10 10 13 10 6 7 9 7 9 12 10 7 7 7 9 9 15 15 13 15 15 7 6 6 6 6 5 4 4
5 5 1 1 10 9 7 7 7 7 7 7 8 7 7 9 11 9 10 7 7 7 9 8 11 13 12 9 8 9 8 8 9 10 15 17 15 6 6 5 5 5 5 4 4
5 9 5 4 5 8 8 8 9 6 7 6 7 7 8 9 8 10 11 8 7 7 7 7 10 11 14 11 9 11 9 8 9 13 13 13 11 8 7 6 6 5 4 4 4
6 7 7 9 7 7 7 8 10 10 8 7 8 8 9 11 10 12 10 10 8 7 7 8 12 10 9 9 9 10 10 9 10 9 12 10 10 8 7 6 5 5 4 4 4
7 8 7 8 7 8 8 9 10 9 9 10 9 9 9 10 11 12 11 10 11 8 8 8 12 10 13 9 10 11 9 9 9 9 9 9 9 6 5 5 5 5 5 5 5
5 5 6 8 8 9 9 9 9 8 8 8 8 9 10 9 8 8 8 8 8 10 10 10 12 13 15 10 10 13 10 9 9 8 8 10 8 6 6 6 5 5 5 5 4